Location: Shannon
(40.5500°S, 175.4167°E)
Time: 20:49:06
(UTC+00:00)

Meteor 2-19 Rocket - Pass Details

Date: 17 November 2025
Orbit: 937 x 957 km, 82.5° (Epoch: 14 December)

Event Time Altitude Azimuth Distance (km) Brightness Sun altitude
Rises 13:51:21 0° 189° (S) 3,635 8.3 -25.3°
Reaches altitude 10° 13:53:52 10° 189° (S) 2,683 7.5 -25.0°
Maximum altitude 14:00:00 83° 276° (W) 959 4.3 -24.4°
Enters shadow 14:01:36 52° 356° (N) 1,159 4.5 -24.3°
